Regional Weather Roundup
Issued by NWS

Home | Current Version | Previous Version | Graphics & Text | Print | Product List | Glossary On
Versions: 1 2 3 4 5 6 7 8 9 10 11 12 13 14 15 16 17 18 19 20 21 22 23 24 25 26 27 28 29 30 31 32 33 34 35 36 37 38 39 40 41 42 43 44 45 46 47 48 49 50
000
ASUS43 KMKX 220700
RWRWI

WISCONSIN REGIONAL WEATHER ROUNDUP
NATIONAL WEATHER SERVICE MILWAUKEE/SULLIVAN WI
200 AM CDT SAT JUL 22 2017

NOTE: "FAIR" INDICATES FEW OR NO CLOUDS BELOW 12,000 FEET WITH NO
SIGNIFICANT WEATHER AND/OR OBSTRUCTIONS TO VISIBILITY.

WIZ001-002-006>008-014>016-023>028-220800-
NORTHWEST WISCONSIN

CITY           SKY/WX    TMP DP  RH WIND       PRES   REMARKS
SUPERIOR ARPT  NOT AVBL
ASHLAND        CLOUDY    61  61 100 CALM      29.78R
HAYWARD        CLOUDY    65  64  97 SW3       29.79R
SIREN          CLOUDY    65  63  94 CALM      29.77F
CUMBERLAND     CLOUDY    63  61  94 N6        29.78F
RICE LAKE      CLOUDY    64  63  94 E7        29.77F
CHETEK         CLOUDY    64  63  99 S6        29.77F
LADYSMITH      CLOUDY    65  64  96 S5        29.81R
EAU CLAIRE     NOT AVBL
MENOMONIE      PTCLDY    67  65  91 S5        29.79F
NEW RICHMOND   MOCLDY    68  60  76 S15       29.73F
OSCEOLA        CLOUDY    68  68 100 S9G16     29.75F
$$

WIZ003>005-009-010-017-018-220800-
NORTH CENTRAL WISCONSIN

CITY           SKY/WX    TMP DP  RH WIND       PRES   REMARKS
MANITOWISH WTR PTCLDY    66  66 100 CALM      29.80F
ARBOR VITAE    CLOUDY    69  67  93 S7        29.80F
WOODRUFF       CLOUDY    69  67  93 S7        29.80F
RHINELANDER    PTCLDY    66  64  93 S3        29.84F
EAGLE RIVER    CLOUDY    67  60  78 SE3       29.82F
LAND O LAKES   MOCLDY    67  63  86 S3        29.84R
PHILLIPS       CLOUDY    67  66  99 S6        29.79R
TOMAHAWK         N/A     65  64  93 SE6       29.78F
MEDFORD        CLOUDY    65  64  97 S6        29.83F
MERRILL        CLOUDY    66  66 100 S6        29.82F
$$

WIZ029-030-035-036-043>047-220800-
CENTRAL WISCONSIN

CITY           SKY/WX    TMP DP  RH WIND       PRES   REMARKS
WAUSAU         CLOUDY    66  63  90 SE5       29.80F
MOSINEE        CLOUDY    64  64 100 E3        29.87F
MARSHFIELD     FOG       66  64  93 SE7       29.81F VSB 1/2
STEVENS POINT  CLOUDY    64  64 100 CALM      29.87F
WAUPACA        CLOUDY    68  65  92 CALM      29.88F
WAUTOMA        CLOUDY    66  65  96 E3        29.85F
WISC RAPIDS    CLOUDY    67  66  97 E5        29.85F
CAMP DOUGLAS   CLOUDY    70  70 100 NE3       29.84F
$$

WIZ011>013-019>022-031-037>040-048>050-220800-
NORTHEAST WISCONSIN

CITY           SKY/WX    TMP DP  RH WIND       PRES   REMARKS
ANTIGO         CLOUDY    60  60  99 S7        29.86F
SHAWANO        CLOUDY    71  62  73 CALM      29.86F
OCONTO         CLOUDY    64  63  96 CALM      29.86S
STURGEON BAY     N/A     70  62  76 SW12      29.85F
GREEN BAY      CLOUDY    70  63  78 S8        29.87S
MANITOWOC      NOT AVBL
APPLETON       CLOUDY    68  59  73 SE7       29.87R
CLINTONVILLE   CLOUDY    68  61  77 SW5       29.87F
OSHKOSH        CLOUDY    66  62  87 SE5       29.85S
$$

WIZ032>034-041-042-053>061-220800-
SOUTHWEST WISCONSIN

CITY           SKY/WX    TMP DP  RH WIND       PRES   REMARKS
LA CROSSE      CLOUDY    73  70  90 E3        29.83F
SPARTA         CLOUDY    66  66  99 N3        29.85F
VIROQUA        CLOUDY    69  69 100 E7        29.86S
BOSCOBEL       CLOUDY    72  70  93 NE6       29.80F
PRAIRIE DU CHI CLOUDY    71  70  96 CALM      29.81R
PLATTEVILLE    CLOUDY    70  70 100 SE12      29.80F
$$

WIZ056-057-062-063-064-067-068-220800-
SOUTH CENTRAL WISCONSIN

CITY           SKY/WX    TMP DP  RH WIND       PRES   REMARKS
REEDSBURG      CLOUDY    67  67 100 E3        29.83F
BARABOO/DELLS  CLOUDY    65  64  94 E5        29.84F
LONE ROCK      NOT AVBL
MINERAL POINT  LGT RAIN  72  72 100 SE5       29.80F
MADISON        CLOUDY    66  65  96 E7        29.81F FOG
MIDDLETON      CLOUDY    68  68 100 E6        29.84F
WATERTOWN      CLOUDY    64  64 100 E8        29.84F
MONROE         TSTM      70  68  94 SW13      29.83S
JANESVILLE     DRIZZLE   72  72 100 CALM      29.83R
$$

WIZ051-052-058>065-066-070>072-220800-
SOUTHEAST WISCONSIN

CITY           SKY/WX    TMP DP  RH WIND       PRES   REMARKS
MILWAUKEE      LGT RAIN  69  67  93 NE5       29.85F
WAUKESHA       CLOUDY    63  61  94 E5        29.87F
MILWAUKEE/TIMM CLOUDY    64  59  82 E3        29.86F
RACINE         CLOUDY    72  71  97 NE5       29.85F
KENOSHA        CLOUDY    73  71  93 NE6       29.83F
FOND DU LAC    CLOUDY    65  60  84 SE8       29.85F
SHEBOYGAN      CLOUDY    64  63  96 CALM      29.87S
WEST BEND      CLOUDY    61  61 100 E3        29.86F
JUNEAU         CLOUDY    64  62  94 E5        29.86F
$$

LSZ147-162-220800-
LAKE SUPERIOR

STATION/POSITION TIME  TEMP    WIND        PRES    WAVE
                       AIR SEA DIR/SP/G            HT/PER
                 (UTC) (F)     (DEG/KT/KT) (MB)    (FT/S)
W MID LAKE BUOY  0550   53 47  360/ 12/ 14 1009.1F   1
DEVILS ISLAND    0600   59      40/ 11/ 12 1008.5F
SAXON HARBOR     0640   66      40/  5/ 10 1008.1R
$$

LMZ867-665-643>646-220800-
LAKE MICHIGAN

STATION/POSITION TIME  TEMP    WIND        PRES    WAVE
                       AIR SEA DIR/SP/G            HT/PER
                 (UTC) (F)     (DEG/KT/KT) (MB)    (FT/S)
CHAMBERS ISLAND  0640   71     170/  3/  8 1010.8R
S GREEN BAY BUOY 0630   73 74  180/ 14/ 17 1010.7F
N MID LAKE BUOY  0550   68 67  180/  8/ 12 1011.3F   1
NORTHPORT PIER   0640   70     180/  4/  9 1010.8S
KEWAUNEE LAKESHO 0630   69     160/ 14/ 17 1011.4F
SHEBOYGAN LAKESH 0600   67     130/ 11/ 11 1010.9F
PORT WASHINGTON  0640   66      90/  7/  9 1011.5F
MILWAUKEE LAKESH 0650   68      20/  5/  6   N/A
S MID LAKE BUOY  0550   72 70  100/ 12/ 14 1010.3F   1/ 3
KENOSHA   LAKESH 0600   71     160/  3/  5 1010.5
$$

TC  - TEMPERATURE IN CELSIUS
VSB - VISIBILITY IN STATUTE MILES
WCI - WIND CHILL INDEX
HX  - HEAT INDEX




USA.gov is the U.S. government's official web portal to all federal, state and local government web resources and services.